Regional Weather Roundup
Issued by NWS Mt. Holly, NJ

Home | Current Version | Previous Version | Text Only | Print | Product List | Glossary On
Versions: 1 2 3 4 5 6 7 8 9 10 11 12 13 14 15 16 17 18 19 20 21 22 23 24 25 26 27 28 29 30 31 32 33 34 35 36 37 38 39 40 41 42 43 44 45 46 47 48 49 50
000
ASUS41 KPHI 291610
RWRPHI

REGIONAL WEATHER ROUNDUP
NATIONAL WEATHER SERVICE MOUNT HOLLY NJ
1100 AM EST THU JAN 29 2015

NOTE:  "FAIR" INDICATES FEW OR NO CLOUDS BELOW 12,000 FEET WITH NO
SIGNIFICANT WEATHER AND/OR OBSTRUCTIONS TO VISIBILITY.

 * = STATION DOES NOT REPORT PRECIPITATION (E.G. RAIN, SNOW, ETC.)
        OR FOG.

NJZ015>026-291700-
SOUTHERN NEW JERSEY

CITY           SKY/WX    TMP DP  RH WIND       PRES   REMARKS
POMONA         MOSUNNY   31  14  49 SE3       30.32S
RIO GRANDE*    MOSUNNY   32  16  51 E10       30.30F WCI  24
MILLVILLE      MOSUNNY   32  11  41 SE7       30.30F WCI  26
WRIGHTSTOWN    PTSUNNY   28   6  39 N2        30.29S
MOUNT HOLLY    MOSUNNY   26   7  44 E5        30.31F WCI  20
TRENTON        MOSUNNY   25   2  37 SE6       30.30F WCI  18

$$
NJZ001>014-291700-
NORTHERN NEW JERSEY

CITY           SKY/WX    TMP DP  RH WIND       PRES   REMARKS
SUSSEX         MOSUNNY   19   3  49 CALM      30.27F
ANDOVER*         N/A     22   1  40 N5        30.27F WCI  16
MORRISTOWN     PTSUNNY   25   3  39 CALM      30.31F
NEWARK         PTSUNNY   27   6  41 CALM      30.32S
TETERBORO      SUNNY     27   5  39 CALM      30.31F
CALDWELL       SUNNY     25  -1  32 CALM      30.31F
SOMERVILLE     MOSUNNY   27   0  31 CALM      30.29F
ALLAIRE*       SUNNY     28   9  43 SE5       30.30S WCI  23
TOMS RIVER*    SUNNY     27  12  54 CALM      30.32S

$$
PAZ043-044-047-054-055-060>062-066>071-291700-
EASTERN PENNSYLVANIA

CITY           SKY/WX    TMP DP  RH WIND       PRES   REMARKS
PHILADELPHIA   PTSUNNY   31   4  31 SE6       30.32F WCI  25
NORTH PHILA    MOSUNNY   28   3  34 E6        30.32F WCI  22
BLUE BELL      PTSUNNY   32   5  32 E3        30.28F
DOYLESTOWN     PTSUNNY   24   1  36 VRB3      30.28F
QUAKERTOWN*    PTSUNNY   27   1  33 E5        30.28S WCI  21
POTTSTOWN      PTSUNNY   25   5  42 E3        30.30S
LANCASTER      PTSUNNY   20   9  62 SE5       30.26F WCI  13
COATESVILLE    PTSUNNY   28   7  40 SE5       30.27S WCI  23
READING        PTSUNNY   21   6  52 NE5       30.28F WCI  15
ALLENTOWN      PTSUNNY   21   5  50 NE5       30.29S WCI  15
MOUNT POCONO   PTSUNNY   23   0  36 SE9       30.15F WCI  13
HAZLETON       PTSUNNY   28   0  29 SE9G16    30.18F WCI  20
WILKES BARRE   PTSUNNY   16   7  67 W5        30.21S WCI   9

$$
DEZALL-MDZ008-012-015-019-020-291700-
DELAWARE AND EASTERN MARYLAND

CITY           SKY/WX    TMP DP  RH WIND       PRES   REMARKS
WILMINGTON     PTSUNNY   30   7  37 SE7       30.31F WCI  23
DOVER          PTSUNNY   30  13  49 E8        30.30F WCI  22
GEORGETOWN     MOSUNNY   34  10  37 SE6       30.31F WCI  29
EASTON         MOSUNNY   32  12  43 SE8       30.34F WCI  25
PATUXENT       CLOUDY    31  12  45 SE9       30.31F WCI  23
OCEAN CITY     MOSUNNY   33  19  56 E5        30.33F WCI  29
WALLOPS ISLAND PTSUNNY   32  18  56 E6        30.32F WCI  26
CAMBRIDGE      CLOUDY    32  12  43 SE7       30.31F WCI  26
SALISBURY      PTSUNNY   36  13  38 E7        30.30F WCI  30

$$
PAZ001-021-NYZ056-072-MDZ011-DCZ001-291700-
OTHER NEARBY LOCATIONS

CITY           SKY/WX    TMP DP  RH WIND       PRES   REMARKS
HARRISBURG     CLOUDY    23  12  62 SE3       30.24F
STATE COLLEGE  CLOUDY    16   9  73 CALM      30.11F
WILLIAMSPORT   CLOUDY    14   4  64 SE5       30.21F WCI   6
BINGHAMTON     CLOUDY    19   6  57 SE12      30.08F WCI   7
NEW YORK CITY  SUNNY     29   5  36 E3        30.32F
BALTIMORE      CLOUDY    29  11  47 SE5       30.28F WCI  24
WASHINGTON DC  CLOUDY    34  12  40 S7        30.30F WCI  28

$$



USA.gov is the U.S. government's official web portal to all federal, state and local government web resources and services.